SJ-11-05

Satellite information

Favourite Embed

Satellite Type and Status

PAYLOADIN ORBIT

Key statistics

Satellite SJ-11-05 at a glance.

Uptime

4318

Days in orbit

Revolutions

≈ 14.6

Per day

Orbit

SSO

Sun Synchronous Orbit

Inclination

98.3

Latest

Satellite identification and parameters

Extended collection of information and parameters for SJ-11-05.

Object identification

Identified? True

Debris? False

Object name: SJ-11-05

International designator: 2013-035A

Object number (NORAD): 39202

Object ID (CCSDS): 39202

Country: PEOPLES REPUBLIC OF CHINA (PRC)

Current information (Y/N): Y

RCS size: LARGE

Orbital parameters

Period: 98.353 minutes

Inclination: 98.2732 deg

SMA: 7058.066 km

Apoapsis: 688.142 km

Periapsis: 671.719 km

RAAN: 308.3547 deg

Eccentricy: 0.0011634

Argument of periapsis: 59.8355 deg

Mean anomaly: 300.3998 deg

Mean motion: 14.64111721 rev/day

Mean motion (dot): 0.00000751 rev/day2

B* drag term: 0.00015217 1/REarth

Two-line elements (TLE)

Creation date: May 11, 2025, 2:40 a.m.

Reference frame: TEME

Reference center: EARTH

Epoch: May 10, 2025, 10:08 p.m. UTC

TLE line 0: 0 SJ-11-05

TLE line 1: 1 39202U 13035A 25130.92236368 .00000751 00000-0 15217-3 0 9990

TLE line 2: 2 39202 98.2732 308.3547 0011634 59.8355 300.3998 14.64111721630356

Live tracking on map

Real-time ground track for satellite SJ-11-05.

In-orbit conjunctions

There are no conjunctions computed for SJ-11-05, at the moment. Check back to stay up to date, as we update our databases every day.

Go to all conjunctions

Associated space launch

SJ-11-05 was lifted into orbit during the mission ‘Long March 2C | Shijian 11-05’, on board a Long March 2 space rocket.

The launch took place on July 15, 2013, 9:27 a.m. from Launch Area 4 (SLS-2 / 603).

For more information about the launch, click the button.

Launch to space Long March 2C | Shijian 11-05
Long March 2C | Shijian 11-05

Agency: N/A

Status: Launch Successful

Launch date: July 15, 2013, 9:27 a.m. UTC

Rocket: Long March 2

Launch pad: Launch Area 4 (SLS-2 / 603)

Location: Jiuquan Satellite Launch Center, People's Republic of China

...

Latest news about this satellite

There are no fresh news available about this satellite. Check back as we update our databases every day.


Newsletter sign-up

Weekly statistics, charts and insights to help you stay on top of the space industry.